Weather reports worldwide

Advertisment
Saarbrücken-Ensheim, Germany (10708): temperature & dewpoint: 06.12.2018 00:00:00 - 12.12.2018 00:00:00 (CET)Saarbrücken-Ensheim, Germany (10708): temperature 5cm & temperature -5cm: 06.12.2018 00:00:00 - 12.12.2018 00:00:00 (CET)Saarbrücken-Ensheim, Germany (10708): temperature -20cm & temperature -100cm: 06.12.2018 00:00:00 - 12.12.2018 00:00:00 (CET)Saarbrücken-Ensheim, Germany (10708): wind speed & gusts: 06.12.2018 00:00:00 - 12.12.2018 00:00:00 (CET)Saarbrücken-Ensheim, Germany (10708): wind direction: 06.12.2018 00:00:00 - 12.12.2018 00:00:00 (CET)Saarbrücken-Ensheim, Germany (10708): reduced air pressure: 06.12.2018 00:00:00 - 12.12.2018 00:00:00 (CET)Saarbrücken-Ensheim, Germany (10708): visibility: 06.12.2018 00:00:00 - 12.12.2018 00:00:00 (CET)Saarbrücken-Ensheim, Germany (10708): sunshine duration: 06.12.2018 00:00:00 - 12.12.2018 00:00:00 (CET)Saarbrücken-Ensheim, Germany (10708): precipitation: 06.12.2018 00:00:00 - 12.12.2018 00:00:00 (CET)
Date & Time tt [°C] td [°C] tt 5cm [°C] tt -5cm [°C] tt -20cm [°C] tt -100cm [°C] ff [km/h] ff [kn] fx [km/h] fx [kn] dd ppp [hPa] vv [km] sd [min] rr [mm]
12.12.2018 00:00:00 -0,7 -0,8 -0,7 1,2 3,5 9,1 2 1 5 3 W 1025,8 0,2 0 0,0
11.12.2018 23:00:00 -0,6 -1,1 -0,7 1,2 3,6 9,1 2 1 4 2 - 1025,7 0,3 0 0,0
11.12.2018 22:00:00 -0,3 -0,4 -0,6 1,2 3,6 9,1 4 2 5 3 N 1025,9 0,4 0 0,0
11.12.2018 21:00:00 -0,2 -0,5 -0,5 1,2 3,7 9,1 5 3 8 4 W 1025,9 0,2 0 0,0
11.12.2018 20:00:00 -0,1 -0,5 -0,4 1,3 3,7 9,1 4 2 9 5 - 1026,1 0,4 0 0,0
11.12.2018 19:00:00 -0,3 -0,8 -1,8 1,3 3,8 9,1 4 2 9 5 - 1026,0 5 0 0,0
11.12.2018 18:00:00 -0,4 -0,9 -2,9 1,4 3,9 9,1 5 3 11 6 SW 1025,8 6 0 0,0
11.12.2018 17:00:00 -0,3 -1,1 -2,6 1,6 4,0 9,2 4 2 13 7 SSW 1025,7 10 0 0,0
11.12.2018 16:00:00 0,9 -0,2 -1,4 2,4 3,9 9,2 8 4 18 10 WSW 1025,5 15 1 0,0
11.12.2018 15:00:00 1,7 0,0 1,4 3,0 3,7 9,2 13 7 18 10 WSW 1025,5 15 8 0,0
11.12.2018 14:00:00 1,0 -0,1 1,7 1,6 3,7 9,2 10 6 16 9 WSW 1026,1 4,5 0 0,0
11.12.2018 13:00:00 0,3 -0,1 0,8 1,0 3,7 9,2 13 7 16 9 WSW 1026,3 0,8 0 0,0
11.12.2018 12:00:00 0,2 -0,1 0,5 1,0 3,8 9,2 9 5 16 9 SSW 1026,7 0,3 0 0,0
11.12.2018 11:00:00 0,4 0,0 0,5 1,0 3,8 9,2 9 5 15 8 WSW 1026,8 1,8 4 0,0
11.12.2018 10:00:00 0,2 -0,3 -0,5 1,0 3,9 9,2 5 3 9 5 W 1026,6 5 29 0,0
11.12.2018 09:00:00 -1,2 -1,5 -3,0 1,0 4,0 9,2 8 5 11 6 WNW 1026,5 0,8 2 0,0
11.12.2018 08:00:00 -0,5 -0,9 -3,9 1,1 4,1 9,2 9 5 11 6 WSW 1026,5 9 0 0,0
11.12.2018 07:00:00 -0,6 -1,2 -3,7 1,3 4,2 9,2 8 4 14 8 WSW 1026,3 10 0 0,0
11.12.2018 06:00:00 -0,3 -0,9 -1,3 1,3 4,2 9,2 11 6 16 9 W 1026,4 10 0 0,0
11.12.2018 05:00:00 -0,5 -1,3 -2,2 1,4 4,3 9,2 9 5 16 8 WNW 1026,3 10 0 0,0
11.12.2018 04:00:00 0,7 -0,5 -0,6 1,5 4,4 9,2 15 8 21 11 W 1026,0 10 0 0,0
11.12.2018 03:00:00 1,1 -0,5 -0,4 1,5 4,6 9,2 15 8 25 13 W 1026,1 10 0 0,0
11.12.2018 02:00:00 0,9 -0,5 -0,7 1,6 4,7 9,2 11 6 16 9 W 1025,9 50 0 0,0
11.12.2018 01:00:00 1,2 -0,4 -0,5 1,6 4,9 9,2 13 7 18 10 WNW 1025,9 50 0 0,0
11.12.2018 00:00:00 1,7 -0,5 -0,8 1,7 5,1 9,2 5 3 16 9 W 1026,1 50 0 0,0
10.12.2018 23:00:00 2,0 -0,8 -0,5 2,2 5,2 9,2 9 5 16 8 WNW 1026,1 50 0 0,0
10.12.2018 22:00:00 2,7 0,0 1,1 2,9 5,3 9,3 11 6 29 16 WNW 1025,4 10 0 0,0
10.12.2018 21:00:00 3,9 0,7 3,0 2,7 5,5 9,3 16 9 26 14 WNW 1025,0 40 0 0,0
10.12.2018 20:00:00 3,2 1,2 1,5 3,0 5,7 9,3 15 8 31 17 WNW 1024,8 10 0 0,0
10.12.2018 19:00:00 3,8 1,3 2,3 3,4 5,8 9,3 19 10 38 20 WNW 1024,4 30 0 0,0
10.12.2018 18:00:00 4,5 1,2 3,0 3,8 6,0 9,3 24 13 32 17 W 1023,9 10 0 0,0
10.12.2018 17:00:00 5,0 1,2 3,1 4,5 6,0 9,3 26 14 41 22 WNW 1023,6 30 0 0,0
10.12.2018 16:00:00 5,4 1,6 4,1 5,0 6,1 9,3 18 10 31 17 W 1023,7 10 33 0,0
10.12.2018 15:00:00 4,8 2,5 3,8 5,3 6,0 9,3 18 10 34 18 W 1023,9 10 21 0,1
10.12.2018 14:00:00 5,3 2,3 4,9 5,6 6,0 9,3 15 8 37 20 WNW 1024,0 30 1 0,0
10.12.2018 13:00:00 5,5 1,8 4,8 5,6 5,8 9,3 18 10 29 16 W 1024,5 10 1 0,0
10.12.2018 12:00:00 5,5 2,1 5,4 5,5 5,7 9,3 14 8 34 18 WNW 1024,8 40 7 0,0
10.12.2018 11:00:00 4,9 2,2 4,9 4,7 5,6 9,3 22 12 33 18 W 1024,8 40 48 0,0
10.12.2018 10:00:00 4,1 2,1 3,8 3,6 5,7 9,3 18 10 23 13 W 1024,5 10 53 0,0
10.12.2018 09:00:00 3,2 1,9 2,1 3,5 5,7 9,3 16 9 25 14 W 1024,0 10 7 0,0
10.12.2018 08:00:00 3,6 2,3 2,8 3,4 5,9 9,3 14 8 24 13 W 1023,5 25 0 0,0
10.12.2018 07:00:00 3,7 2,3 2,3 3,7 6,0 9,3 16 9 24 13 W 1023,0 10 0 0,0
10.12.2018 06:00:00 3,8 2,2 2,7 3,7 6,1 9,3 15 8 32 17 W 1022,3 10 0 0,0
10.12.2018 05:00:00 3,9 1,8 2,5 4,1 6,2 9,3 22 12 33 18 W 1021,8 10 0 0,0
10.12.2018 04:00:00 4,3 2,4 3,6 4,4 6,3 9,3 21 11 34 18 W 1021,5 40 0 0,0
10.12.2018 03:00:00 4,4 2,4 3,7 4,3 6,4 9,3 24 13 35 19 W 1021,0 10 0 0,0
10.12.2018 02:00:00 4,2 1,8 2,5 4,4 6,5 9,3 23 12 32 17 W 1020,0 40 0 0,0
10.12.2018 01:00:00 4,7 2,2 3,4 4,8 6,6 9,3 18 10 29 16 W 1019,3 40 0 0,0
10.12.2018 00:00:00 5,0 3,1 4,2 5,2 6,7 9,3 18 10 32 17 W 1018,5 40 0 0,0
09.12.2018 23:00:00 5,2 3,5 4,5 5,2 6,8 9,3 18 10 29 16 W 1017,5 10 0 0,0
09.12.2018 22:00:00 5,3 4,0 4,6 5,7 6,9 9,3 14 8 36 20 WNW 1016,3 20 0 2,0
09.12.2018 21:00:00 5,9 4,1 5,0 5,7 7,0 9,3 21 11 33 18 WNW 1015,0 10 0 0,5
09.12.2018 20:00:00 6,1 4,7 5,5 5,7 7,0 9,3 18 10 24 13 W 1013,6 10 0 0,0
09.12.2018 19:00:00 6,1 5,0 5,2 6,1 7,1 9,3 15 8 35 19 W 1012,0 10 0 0,0
09.12.2018 18:00:00 6,5 5,1 5,7 6,3 7,1 9,3 25 14 39 21 W 1010,1 40 0 0,0
09.12.2018 17:00:00 6,8 5,4 5,9 6,5 7,1 9,3 21 11 41 22 W 1008,7 40 0 0,1
09.12.2018 16:00:00 6,8 5,7 6,2 6,6 7,1 9,3 31 17 49 26 W 1007,2 25 0 1,2
09.12.2018 15:00:00 6,8 5,4 6,1 6,7 7,1 9,3 35 19 56 30 W 1005,9 8 0 0,4
09.12.2018 14:00:00 6,6 5,4 6,2 6,6 7,1 9,3 37 20 55 30 W 1006,0 10 0 1,4
09.12.2018 13:00:00 6,5 5,3 6,2 6,4 7,1 9,3 31 17 57 31 W 1006,0 10 0 1,2
09.12.2018 12:00:00 6,9 4,5 6,1 6,4 7,1 9,3 41 22 59 32 W 1006,1 10 0 0,3
09.12.2018 11:00:00 6,3 5,0 5,7 6,3 7,1 9,3 37 20 57 31 W 1006,3 4,2 0 1,0
09.12.2018 10:00:00 6,4 4,7 5,6 6,2 7,1 9,3 39 21 71 38 W 1006,0 9 0 0,9
09.12.2018 09:00:00 6,6 4,2 5,5 6,1 7,2 9,3 37 20 70 38 W 1005,5 10 0 0,3
09.12.2018 08:00:00 6,9 3,7 6,0 6,2 7,2 9,3 44 24 72 39 W 1004,7 10 0 0,0
09.12.2018 07:00:00 7,1 3,1 6,3 6,3 7,3 9,3 46 25 80 43 W 1003,9 10 0 0,0
09.12.2018 06:00:00 7,7 4,3 6,3 6,6 7,3 9,3 49 26 79 43 W 1002,6 10 0 0,0
09.12.2018 05:00:00 8,0 4,3 6,9 6,7 7,3 9,3 37 20 58 31 W 1002,8 30 0 0,0
09.12.2018 04:00:00 7,8 5,3 6,7 6,7 7,4 9,3 35 19 51 28 W 1002,7 10 0 0,0
09.12.2018 03:00:00 7,4 4,7 6,4 7,0 7,4 9,3 37 20 73 39 W 1002,7 10 0 1,4
09.12.2018 02:00:00 9,4 5,6 8,5 7,1 7,3 9,3 43 23 62 34 W 1002,3 30 0 0,0
09.12.2018 01:00:00 9,4 6,0 8,0 7,2 7,3 9,3 46 25 70 38 WSW 1002,8 10 0 0,0
09.12.2018 00:00:00 9,2 7,0 8,1 7,1 7,2 9,3 50 27 78 42 WSW 1002,7 40 0 2,1
08.12.2018 23:00:00 7,9 7,2 7,4 6,9 7,2 9,3 35 19 61 33 SW 1003,4 5 0 2,2
08.12.2018 22:00:00 7,5 6,8 7,1 6,8 7,2 9,3 39 21 62 34 SW 1005,1 4,0 0 0,3
08.12.2018 21:00:00 7,4 6,5 6,9 6,6 7,2 9,3 35 19 59 32 SW 1007,1 6 0 0,2
08.12.2018 20:00:00 7,1 6,2 6,6 6,5 7,1 9,3 37 20 54 29 SW 1008,4 5 0 0,3
08.12.2018 19:00:00 7,1 5,4 6,2 6,4 7,1 9,3 29 16 47 25 SW 1009,6 8 0 0,3
08.12.2018 18:00:00 7,3 4,7 6,3 6,4 7,1 9,3 28 15 48 26 SW 1010,8 25 0 0,0
08.12.2018 17:00:00 7,0 5,0 6,1 6,5 7,1 9,3 29 16 51 27 SW 1011,7 10 0 0,0
08.12.2018 16:00:00 6,9 5,2 6,2 6,6 7,1 9,3 35 19 63 34 WSW 1011,8 10 0 0,0
08.12.2018 15:00:00 7,2 4,5 6,3 6,6 7,0 9,3 37 20 59 32 WSW 1011,8 10 0 0,0
08.12.2018 14:00:00 6,8 4,8 6,0 6,3 7,0 9,3 37 20 54 29 WSW 1011,7 10 0 0,2
08.12.2018 13:00:00 6,3 5,0 5,8 6,2 7,0 9,3 39 21 61 33 WSW 1012,0 7 0 0,2
08.12.2018 12:00:00 5,9 4,7 5,4 6,0 7,0 9,3 34 18 49 27 WSW 1012,4 10 0 0,6
08.12.2018 11:00:00 5,7 4,4 5,2 5,8 7,0 9,3 31 17 48 26 WSW 1012,5 9 0 0,2
08.12.2018 10:00:00 5,3 3,9 4,8 5,6 7,0 9,3 37 20 52 28 WSW 1012,8 7 0 0,4
08.12.2018 09:00:00 5,2 3,6 4,5 5,5 7,1 9,3 31 17 50 27 SW 1013,0 12 0 0,7
08.12.2018 08:00:00 5,3 3,0 4,5 5,5 7,1 9,3 28 15 53 29 SW 1013,1 10 0 0,0
08.12.2018 07:00:00 5,6 2,3 5,1 5,5 7,2 9,3 31 17 54 29 WSW 1013,5 10 0 0,0
08.12.2018 06:00:00 5,4 2,4 4,9 5,6 7,3 9,3 32 18 48 26 WSW 1013,7 20 0 0,0
08.12.2018 05:00:00 5,1 2,9 4,3 5,6 7,4 9,3 28 15 46 25 WSW 1013,8 10 0 0,1
08.12.2018 04:00:00 5,4 2,5 4,8 5,8 7,5 9,3 34 19 53 28 WSW 1014,0 29 0 0,0
08.12.2018 03:00:00 5,4 3,0 4,5 6,0 7,7 9,3 24 13 48 26 WSW 1013,9 10 0 0,1
08.12.2018 02:00:00 5,9 2,5 5,5 6,1 7,8 9,3 35 19 49 27 WSW 1013,5 10 0 0,0
08.12.2018 01:00:00 6,2 2,6 5,6 6,3 7,9 9,3 31 17 53 29 WSW 1013,2 35 0 0,0
08.12.2018 00:00:00 6,3 3,1 5,3 6,6 8,0 9,3 35 19 54 29 WSW 1012,4 10 0 0,1
07.12.2018 23:00:00 7,0 3,6 6,3 6,8 8,2 9,3 29 16 48 26 W 1011,4 10 0 0,0
07.12.2018 22:00:00 6,8 3,6 6,2 7,0 8,3 9,3 31 17 55 30 W 1010,3 10 0 0,0
07.12.2018 21:00:00 7,0 4,3 5,9 7,4 8,4 9,3 37 20 56 30 W 1008,1 10 0 0,0
07.12.2018 20:00:00 8,0 5,2 6,9 7,9 8,4 9,3 35 19 72 39 W 1006,6 10 0 0,9
07.12.2018 19:00:00 8,7 7,4 8,0 8,1 8,5 9,2 42 23 68 37 SW 1004,9 10 0 1,3
07.12.2018 18:00:00 8,3 7,1 7,7 8,1 8,5 9,2 35 19 58 31 SSW 1005,8 7 0 0,7
07.12.2018 17:00:00 9,3 6,0 8,0 8,3 8,6 9,2 35 19 53 29 SSW 1007,0 10 0 0,0
07.12.2018 16:00:00 9,6 5,8 8,7 8,6 8,6 9,2 34 18 59 32 SW 1008,4 10 0 0,1
07.12.2018 15:00:00 9,6 6,5 9,2 8,8 8,6 9,2 26 14 53 29 SW 1009,4 30 0 0,0
07.12.2018 14:00:00 9,5 6,9 9,3 8,8 8,6 9,2 31 17 49 27 SW 1010,8 10 0 0,0
07.12.2018 13:00:00 9,5 7,0 8,8 8,8 8,6 9,2 28 15 46 25 SW 1012,8 10 0 0,0
07.12.2018 12:00:00 9,7 6,8 9,4 8,7 8,5 9,2 31 17 51 28 SW 1014,2 10 0 0,0
07.12.2018 11:00:00 9,6 7,0 9,3 8,6 8,5 9,2 29 16 47 25 SW 1015,3 30 0 0,0
07.12.2018 10:00:00 9,4 7,0 9,1 8,6 8,6 9,2 31 17 42 23 SW 1015,8 10 0 0,0
07.12.2018 09:00:00 9,5 7,5 8,8 8,6 8,6 9,2 27 14 41 22 WSW 1016,4 30 0 0,0
07.12.2018 08:00:00 9,4 7,8 8,7 8,7 8,6 9,2 24 13 40 21 SW 1016,7 10 0 0,0
07.12.2018 07:00:00 9,7 8,1 8,8 8,8 8,6 9,2 24 13 35 19 SW 1017,0 10 0 0,0
07.12.2018 06:00:00 9,4 8,3 8,8 8,9 8,7 9,2 21 12 44 24 WSW 1018,1 8 0 0,0
07.12.2018 05:00:00 9,6 9,0 9,2 9,1 8,6 9,2 26 14 40 21 WSW 1018,5 10 0 1,0
07.12.2018 04:00:00 10,1 9,7 9,8 9,2 8,6 9,2 24 13 40 21 WSW 1018,8 4,5 0 0,4
07.12.2018 03:00:00 10,4 9,6 9,8 9,2 8,6 9,2 22 12 34 18 WSW 1019,4 20 0 0,2
07.12.2018 02:00:00 10,6 9,9 10,0 9,2 8,5 9,2 21 11 31 17 WSW 1019,7 8 0 0,0
07.12.2018 01:00:00 10,7 9,7 10,1 9,2 8,5 9,2 24 13 40 21 WSW 1020,2 10 0 0,0
07.12.2018 00:00:00 10,6 9,8 10,0 9,2 8,5 9,2 24 13 34 18 WSW 1020,5 10 0 0,0
06.12.2018 23:00:00 10,5 10,0 10,0 9,2 8,4 9,3 24 13 32 17 SW 1020,7 8 0 0,1
06.12.2018 22:00:00 10,7 9,8 10,1 9,2 8,4 9,3 18 10 34 18 WSW 1021,1 10 0 0,0
06.12.2018 21:00:00 10,7 9,9 10,1 9,1 8,3 9,3 20 11 34 18 WSW 1020,9 20 0 0,0
06.12.2018 20:00:00 10,6 10,0 10,1 9,1 8,3 9,3 19 10 29 16 WSW 1021,0 8 0 0,0
06.12.2018 19:00:00 10,5 10,0 10,0 9,1 8,2 9,3 18 10 28 15 SW 1021,2 10 0 0,1
06.12.2018 18:00:00 10,5 9,9 10,0 9,1 8,2 9,3 21 11 28 15 SW 1021,1 10 0 0,8
06.12.2018 17:00:00 10,6 9,7 10,0 9,2 8,1 9,3 16 9 24 13 SW 1020,7 6 0 0,0
06.12.2018 16:00:00 10,7 9,5 10,1 9,4 8,0 9,3 18 10 26 14 SW 1020,8 15 0 0,0
06.12.2018 15:00:00 10,6 9,4 10,3 9,4 7,8 9,3 17 9 29 16 SW 1020,4 15 0 0,0
06.12.2018 14:00:00 10,5 9,5 10,4 9,1 7,6 9,3 16 9 26 14 WSW 1020,5 10 0 0,0
06.12.2018 13:00:00 10,1 9,5 10,0 8,9 7,4 9,3 16 9 22 12 WSW 1020,7 10 0 0,0
06.12.2018 12:00:00 9,6 9,2 9,6 8,3 7,2 9,3 15 8 21 11 SSW 1020,6 3,5 0 0,0
06.12.2018 11:00:00 9,3 9,0 9,1 7,8 7,1 9,3 12 7 26 14 SW 1020,9 2,5 0 0,0
06.12.2018 10:00:00 8,9 8,7 8,8 7,4 7,0 9,3 14 8 18 10 WSW 1020,2 1,2 0 0,3
06.12.2018 09:00:00 8,6 8,5 8,3 7,1 6,9 9,3 15 8 21 11 WSW 1019,4 1,3 0 0,1
06.12.2018 08:00:00 8,3 8,1 8,0 6,9 6,8 9,3 13 7 21 11 WSW 1018,8 1,2 0 0,5
06.12.2018 07:00:00 7,9 7,7 7,7 6,7 6,8 9,3 15 8 24 13 WSW 1018,2 1,2 0 0,2
06.12.2018 06:00:00 7,5 7,3 7,3 6,5 6,7 9,3 15 8 26 14 SW 1017,7 1,8 0 0,0
06.12.2018 05:00:00 7,2 7,0 6,9 6,3 6,6 9,3 15 8 24 13 SSW 1017,2 7 0 0,7
06.12.2018 04:00:00 7,2 6,8 6,8 6,2 6,6 9,3 15 8 22 12 SSW 1017,7 9 0 0,5
06.12.2018 03:00:00 7,0 6,4 6,6 6,0 6,6 9,3 13 7 22 12 SSW 1018,0 9 0 1,9
06.12.2018 02:00:00 6,5 6,0 6,1 5,8 6,5 9,3 16 8 24 13 SSW 1017,9 9 0 1,6
06.12.2018 01:00:00 5,7 5,3 5,3 5,6 6,5 9,3 8 4 16 9 W 1018,4 4,8 0 0,1
06.12.2018 00:00:00 6,0 5,4 5,6 5,5 6,5 9,3 19 10 26 14 SE 1017,9 8 0 0,9

tt = temperature
td = dewpoint
tt 5cm = temperature 5cm
tt -5cm = temperature -5cm
tt -20cm = temperature -20cm
tt -100cm = temperature -100cm
ff = wind speed
fx = gusts
dd = wind direction
ppp = reduced air pressure
vv = visibility
sd = sunshine duration
rr = precipitation

Next stations